Dewpoint
66 68 68 66 66 68 68 68 68 67 67 67 67 67 66 66 66 67 66 67 66 65 64 65 66 65 67 67 67 67 67 67 67 68 68 68 68 68 68 68 68 67 67
68 68 68 67 66 68 68 67 68 67 67 66 66 66 65 65 67 65 66 65 65 64 64 65 66 66 67 67 67 67 67 67 67 67 67 67 68 67 67 67 68 66 65
67 68 68 68 67 67 67 67 68 68 67 65 64 64 64 64 66 65 64 64 65 65 64 65 66 67 67 65 66 66 66 67 67 67 66 66 67 67 67 67 67 65 65
67 68 68 68 67 66 66 67 66 65 64 63 62 63 63 64 64 64 63 64 65 65 64 64 64 65 65 65 66 66 66 66 66 66 66 66 66 66 66 66 66 66 65
67 68 69 68 67 67 67 66 65 64 63 62 62 62 62 64 62 64 65 65 65 65 65 64 64 64 65 65 66 65 65 65 64 63 64 64 65 65 64 64 65 64 63
67 68 69 68 68 68 67 66 64 63 63 63 62 62 63 62 62 64 65 65 65 65 64 64 64 64 64 65 65 64 63 63 63 63 62 63 62 62 62 63 63 62 62
67 68 69 69 68 68 68 67 66 65 64 64 64 62 63 64 64 65 65 65 65 65 64 64 63 63 63 64 64 65 64 64 64 64 64 64 63 63 63 63 63 62 63
67 68 68 68 68 68 67 67 66 66 65 65 64 63 64 64 64 65 65 65 65 65 65 64 64 63 62 62 63 62 62 63 63 62 63 63 64 62 62 61 61 61 61
67 68 68 68 68 67 67 67 67 66 66 65 66 66 65 65 64 64 64 65 64 64 64 64 63 63 62 62 61 60 61 63 62 62 62 62 63 62 62 61 61 60 60
67 67 67 67 67 67 67 67 67 67 67 67 66 66 65 65 65 65 65 64 63 63 62 62 62 62 61 61 61 59 62 61 60 60 61 62 61 61 60 59 59 59 59
65 66 66 66 66 66 66 66 66 66 65 64 64 64 63 63 62 62 63 62 62 61 61 61 60 59 59 59 58 57 59 58 58 59 60 61 60 59 58 57 56 58 59
63 64 64 65 65 66 65 65 65 65 64 63 62 62 63 61 61 60 60 61 60 59 59 59 59 58 58 56 54 54 55 57 57 57 58 59 58 58 57 55 55 55 56
62 63 63 64 65 65 65 65 64 63 62 62 62 62 62 61 60 59 59 59 59 58 58 56 56 54 54 52 51 50 51 54 55 56 57 57 56 55 55 54 54 54 55
60 62 63 64 64 64 64 64 64 63 62 62 61 61 59 60 59 58 58 58 59 56 54 53 52 50 49 48 47 47 47 48 51 54 55 56 55 54 54 53 52 53 53
57 60 62 64 63 63 63 63 63 63 63 61 59 58 59 57 57 59 56 55 55 55 54 53 52 51 49 48 46 46 46 47 48 52 52 53 54 54 54 53 52 52 52
59 59 61 62 61 62 62 62 61 61 59 58 58 58 57 56 56 56 55 55 56 56 56 54 53 50 48 46 43 42 42 45 46 47 51 53 54 53 54 53 52 52 51
59 60 60 60 59 58 57 58 58 57 57 58 57 57 57 56 54 55 55 56 56 56 56 54 51 49 46 45 43 42 41 40 40 42 45 47 51 53 53 53 53 53 52
59 59 60 60 58 56 57 57 57 57 57 58 57 57 57 56 55 55 56 56 57 56 55 53 51 48 47 46 45 44 43 41 39 38 39 40 47 50 51 54 54 53 53
58 58 59 60 60 57 58 57 56 56 56 56 56 56 56 56 55 55 56 57 56 55 54 52 50 47 46 45 45 44 44 43 42 40 38 38 38 43 47 50 52 54 53
59 58 58 60 60 58 58 57 57 56 56 56 56 56 56 56 56 56 55 54 53 52 50 49 48 48 46 46 45 44 44 41 42 41 40 40 39 39 40 44 47 49 52
59 59 58 59 59 58 57 56 56 55 55 56 56 55 57 58 56 55 55 53 53 52 51 50 49 48 47 48 45 45 42 39 42 44 41 38 38 40 41 41 43 46 47
59 59 59 58 58 58 57 57 56 55 56 56 58 58 58 57 56 55 53 53 52 52 51 50 49 48 48 48 45 43 41 40 41 42 42 41 42 43 43 42 43 43 45
58 59 59 58 58 58 58 57 56 57 57 57 57 57 56 55 55 54 53 52 52 52 51 50 48 48 47 48 48 44 43 42 42 43 43 43 44 44 44 45 45 44 44
53 57 58 58 58 58 58 57 56 55 55 56 56 56 55 53 52 52 51 52 52 51 51 51 50 49 48 48 48 48 47 45 43 42 44 44 44 45 45 45 45 45 45
49 53 56 58 58 58 57 57 56 56 56 56 55 54 53 52 52 52 52 52 51 51 50 50 49 49 49 49 48 48 47 46 46 43 40 43 44 44 45 45 45 45 45
49 50 53 57 58 58 58 57 57 56 56 54 53 52 51 50 50 49 49 49 49 49 49 49 49 48 49 47 47 46 46 44 44 44 43 41 42 42 42 42 42 41 43
Wind_Speed
10 13 16 17 16 15 18 17 17 19 19 21 20 20 20 21 22 22 22 22 23 22 21 21 20 20 20 21 20 20 19 19 19 20 19 19 19 19 19 18 18 18 21
17 12 16 18 17 17 19 19 19 19 19 21 20 20 21 21 23 22 22 22 21 20 21 20 20 19 19 19 17 15 13 15 16 17 18 17 17 19 19 19 19 19 20
17 14 16 18 18 19 19 19 19 20 20 20 19 21 20 19 20 21 21 20 20 20 20 20 19 18 18 18 17 16 15 17 14 17 17 13 14 17 18 18 19 20 19
18 14 16 19 19 19 19 19 20 19 19 19 19 19 20 19 19 18 19 18 18 18 18 18 17 18 19 19 18 20 22 21 19 17 14 14 15 19 19 19 18 18 18
17 15 16 20 19 19 19 19 19 19 19 19 19 19 18 18 18 17 17 17 17 17 17 17 17 18 17 18 20 21 20 19 17 15 14 14 13 17 18 18 17 17 18
16 15 18 20 19 19 19 19 19 19 18 18 18 18 18 17 17 16 16 16 16 15 14 14 14 15 16 17 17 15 17 16 18 16 16 14 13 16 17 17 17 16 15
16 14 16 20 19 19 19 19 19 19 19 18 18 17 17 17 16 15 15 14 14 14 13 12 12 13 14 16 17 16 14 15 17 16 15 12 12 15 15 14 13 13 13
17 14 15 18 18 19 19 19 18 18 18 17 16 17 16 15 14 14 13 13 13 13 12 11 10 11 13 14 14 15 13 12 15 15 14 12 13 13 12 12 11 11 11
18 14 13 15 16 17 18 17 18 17 16 16 13 18 16 14 13 13 12 12 11 11 11 11 10 11 12 12 13 13 10 13 13 11 10 10 11 11 11 11 10 10 10
16 15 15 14 14 14 14 17 17 16 15 14 15 16 16 14 13 11 10 10 10 9 9 9 9 10 11 12 13 13 15 13 12 10 9 9 9 9 9 9 9 9 9
15 16 15 15 14 15 15 16 17 16 15 15 14 15 13 10 11 10 9 9 8 7 7 7 7 7 8 10 12 12 11 8 7 8 7 7 7 7 7 8 7 7 7
18 17 16 16 16 15 12 13 14 13 13 12 12 12 10 10 9 8 8 7 5 5 6 6 6 6 7 8 9 10 8 5 4 5 4 5 4 4 5 5 6 6 5
21 17 16 17 16 16 14 13 12 11 12 12 12 10 8 9 8 7 6 4 2 3 6 6 7 7 6 7 6 8 8 4 2 1 1 3 2 2 3 4 4 4 4
19 20 19 18 16 15 14 14 14 13 12 11 11 9 10 8 7 6 4 1 3 5 7 8 8 7 9 7 8 6 7 6 2 1 1 1 1 1 2 1 2 3 3
18 18 20 17 17 17 16 14 13 14 14 11 10 11 8 8 6 7 5 9 9 8 7 6 6 7 7 6 6 5 5 4 3 1 3 4 4 3 2 2 3 4 5
19 20 18 17 16 17 13 15 12 12 12 10 11 9 6 9 9 10 8 8 7 7 6 5 5 5 5 5 6 6 6 5 2 2 3 5 7 6 4 4 5 6 7
20 19 19 15 13 15 13 11 12 10 12 12 11 9 8 8 6 6 9 7 6 4 6 5 4 4 5 6 6 6 6 6 6 6 4 4 6 8 7 7 7 7 8
20 21 16 12 14 13 13 11 12 11 13 12 10 9 8 8 6 7 7 7 5 4 4 4 4 3 5 6 7 9 9 9 8 7 6 4 4 6 8 10 9 9 9
22 21 19 14 13 13 14 12 14 13 12 12 9 9 8 8 8 9 9 5 7 5 5 4 5 4 5 8 10 11 10 8 7 5 6 5 4 5 6 8 10 11 11
20 20 20 15 12 14 15 13 11 10 7 8 10 10 9 8 11 11 10 8 9 8 6 4 4 5 3 8 10 10 9 7 4 5 7 7 6 8 8 8 10 10 12
20 20 21 21 15 17 16 15 12 11 7 6 9 9 11 13 13 12 10 10 8 7 5 4 2 5 5 10 6 9 5 7 10 12 8 7 10 11 13 13 12 12 14
23 21 20 21 19 17 17 13 11 11 5 7 6 8 14 13 12 12 11 8 6 6 5 5 4 2 3 9 5 2 7 5 7 8 10 8 10 11 15 15 16 15 15
23 22 21 22 21 18 17 15 11 8 8 5 8 11 10 13 11 11 8 7 6 6 5 5 4 5 4 4 8 4 4 3 9 7 8 7 12 15 15 16 16 16 16
20 18 20 21 23 19 20 19 18 15 14 9 11 9 10 10 11 9 8 8 8 7 7 6 5 4 3 6 4 8 5 1 3 8 5 16 11 15 13 14 14 17 17
13 15 17 19 21 19 19 19 19 17 11 12 13 15 11 9 10 10 9 8 9 8 7 7 6 7 5 4 4 3 3 4 0 5 13 8 10 7 9 12 15 15 16
9 8 10 19 21 22 22 20 21 19 17 18 16 16 13 10 10 10 11 11 9 9 8 8 8 9 6 6 3 3 3 2 6 4 9 16 20 6 14 8 14 14 16
Wind_Direction
152 146 135 124 118 107 104 101 96 96 96 92 86 85 86 84 81 83 79 72 69 71 73 75 75 80 78 75 74 74 73 72 75 74 65 63 68 72 70 68 66 69 64
145 148 132 125 120 108 109 103 100 98 96 89 89 85 82 77 77 79 77 77 76 75 75 76 77 76 72 66 66 66 76 73 71 67 65 62 67 73 71 69 72 72 67
135 139 131 127 122 118 112 107 101 99 95 92 90 90 87 84 79 79 78 78 73 70 69 70 73 73 67 56 49 63 79 84 73 64 58 56 69 73 77 74 69 69 67
136 137 132 128 126 122 116 108 103 103 101 96 98 96 93 87 86 83 83 79 76 72 70 68 68 64 58 49 45 82 83 83 75 70 68 63 66 72 71 69 74 71 70
133 136 138 133 129 123 120 115 111 108 106 104 103 102 99 95 92 88 85 82 78 72 66 62 59 60 57 51 63 82 81 80 76 68 66 62 61 64 66 64 60 62 61
135 139 141 136 133 124 121 116 116 113 111 109 107 104 102 98 95 90 86 83 81 78 74 69 62 62 57 51 62 87 92 87 78 66 61 61 67 67 66 65 63 63 63
134 140 141 138 133 128 123 120 119 120 118 117 113 111 105 104 100 95 91 89 86 83 80 74 64 59 60 56 58 68 82 88 84 72 60 53 69 71 65 59 60 60 61
135 137 138 137 135 134 129 126 125 123 123 120 121 114 111 106 102 96 91 87 83 79 77 73 65 58 58 59 59 55 58 84 85 82 70 55 55 58 58 53 51 49 49
133 131 128 131 136 133 129 131 127 126 124 122 119 115 111 104 99 94 89 86 82 77 72 67 59 48 48 48 45 37 63 94 89 85 79 70 61 62 58 53 49 47 48
129 132 130 127 130 132 130 128 127 127 124 119 113 116 117 112 105 99 92 90 87 81 76 66 56 40 32 37 36 52 101 102 100 95 86 77 69 61 54 47 41 41 45
138 140 138 135 135 136 135 137 133 135 134 132 128 128 122 117 119 114 111 103 93 84 77 73 60 36 14 17 25 55 95 97 101 103 97 89 72 59 49 41 37 39 43
153 153 148 146 143 139 139 142 144 146 146 145 145 145 138 135 132 128 121 109 98 81 56 49 35 34 41 37 29 49 60 109 107 100 104 98 77 58 45 37 32 31 27
160 159 161 158 153 147 150 152 155 158 159 158 159 167 162 146 139 133 135 129 92 50 34 30 44 38 46 40 33 34 66 74 155 134 171 113 87 43 28 29 23 16 20
161 165 171 164 165 160 156 163 168 168 174 174 177 158 136 147 152 159 150 137 70 69 83 70 67 51 52 41 41 50 47 60 56 200 278 280 37 343 330 341 347 337 327
167 162 171 169 169 163 165 170 176 180 185 184 155 145 161 145 155 141 111 99 105 95 79 64 57 46 35 17 26 16 4 17 46 192 237 249 256 256 260 275 301 312 312
161 162 164 170 164 162 170 173 178 171 174 159 147 150 156 145 146 131 121 111 100 91 82 71 65 45 33 18 4 4 353 327 315 266 238 245 257 263 261 272 285 299 305
164 157 167 164 167 174 169 167 172 166 150 161 159 154 145 150 161 142 130 124 115 93 84 78 56 41 28 11 358 342 335 322 318 308 283 280 270 258 263 268 277 289 296
163 165 164 164 168 176 161 154 152 148 147 158 154 157 162 156 153 138 138 144 121 95 89 72 40 32 11 359 335 327 320 320 315 306 310 303 273 264 267 258 261 277 290
173 169 169 168 172 175 154 146 141 142 145 151 156 162 160 131 120 125 125 117 102 81 62 55 51 34 359 347 331 319 321 313 301 296 292 300 307 294 289 291 288 282 280
179 177 175 174 173 169 153 145 136 137 136 155 162 163 168 144 120 118 112 106 97 91 72 59 52 33 24 347 325 321 339 350 357 4 330 330 337 342 338 315 302 295 288
179 180 180 177 180 166 158 157 157 161 148 161 187 177 149 138 133 128 118 111 104 94 86 64 60 28 16 357 349 344 360 47 41 3 356 2 10 7 352 341 331 313 303
180 184 181 181 177 172 164 166 164 161 158 164 170 146 136 132 132 130 131 130 122 115 87 63 51 32 17 23 13 12 1 343 348 28 24 29 20 355 2 355 348 344 333
180 182 182 180 178 174 166 161 151 121 117 123 130 129 127 135 131 133 131 126 108 104 87 73 62 54 26 12 31 51 6 334 337 336 4 9 13 2 342 343 344 342 335
174 178 183 181 178 176 168 167 171 173 164 164 151 139 128 127 126 124 119 117 110 100 89 79 66 70 72 36 22 28 45 22 333 319 334 323 353 332 327 322 326 327 325
154 165 178 181 180 176 173 173 173 175 173 148 137 136 128 118 116 117 114 108 98 94 89 82 70 64 67 81 69 30 28 338 284 309 307 321 318 320 322 336 317 324 330
143 152 172 182 188 178 176 176 176 176 158 148 149 145 139 125 115 112 110 105 97 90 82 76 73 67 65 71 56 33 25 1 327 314 307 317 317 319 319 314 315 329 324